Regional Weather Roundup
Issued by NWS Jackson, KY

Home | Current Version | Previous Version | Graphics & Text | Print | Product List | Glossary On
Versions: 1 2 3 4 5 6 7 8 9 10 11 12 13 14 15 16 17 18 19 20 21 22 23 24 25 26 27 28 29 30 31 32 33 34 35 36 37 38 39 40 41 42 43 44 45 46 47 48 49 50
000
ASUS43 KJKL 291910
RWRJKL

EAST KENTUCKY HOURLY WEATHER ROUNDUP
NATIONAL WEATHER SERVICE JACKSON KY
300 PM EDT WED MAR 29 2017

NOTE: "FAIR" INDICATES FEW OR NO CLOUDS BELOW 12,000 FEET WITH
NO SIGNIFICANT WEATHER AND/OR OBSTRUCTIONS TO VISIBILITY.

* THESE REPORTS ARE NOT UNDER NWS QUALITY CONTROL AND MAY NOT
  REPORT WEATHER SUCH AS PRECIPITATION AND FOG.

KYZ079-080-083-085-087-088-110-112-115-119-120-292000
...EASTERN KENTUCKY...

CITY           SKY/WX    TMP DP  RH WIND       PRES   REMARKS
JACKSON        PTSUNNY   62  49  62 VRB3      30.12S
LONDON         MOSUNNY   69  50  50 NE5       30.08F
SOMERSET*      MOSUNNY   68  52  56 N9        30.09F
MONTICELLO*    SUNNY     70  55  59 N12G22    30.08F
WILLIAMSBURG*  PTCLDY    72  54  53 N6        30.05F
MIDDLESBORO*   SUNNY     73  50  44 S3        30.06S
HARLAN APT*    CLEAR     73  46  38 CALM      30.06S
PIKE CO APT*   CLOUDY    61  49  64 CALM      30.10F
BIG SANDY APT* MOCLDY    61  48  62 CALM      30.11F
MOREHEAD APT*  MOCLDY    61  45  55 SE3       30.16S
ASHLAND*       CLOUDY    55  46  71 E3        30.16S
$$

KYZ035-036-041-042-044-050-067-078-099-292000
...CENTRAL KENTUCKY...

CITY           SKY/WX    TMP DP  RH WIND       PRES   REMARKS
MT STERLING*   CLOUDY    61  48  63 CALM      30.14F
FLEMING/MASON* CLOUDY    57  46  66 N5        30.17S
DANVILLE*      CLOUDY    61  52  72 E6        30.12F
LEXINGTON      CLOUDY    61  49  64 NE10      30.12F
FRANKFORT      CLOUDY    60  47  61 E7        30.11F
LOUISVILLE     PTSUNNY   64  47  53 E12       30.08F
LEBANON*       MOCLDY    63  52  67 NE7       30.11F
GLASGOW*       MOSUNNY   71  54  55 CALM      30.04F
BOWLING GREEN  SUNNY     73  54  51 E8        30.03F
$$

KYZ091>093-OHZ055-061-077-WVZ005-015-034-035-042-292000
...SOUTHERN OHIO/WEST VIRGINIA...

CITY           SKY/WX    TMP DP  RH WIND       PRES   REMARKS
COVINGTON      CLOUDY    54  44  69 E9        30.16F
COLUMBUS       MOSUNNY   61  39  44 NE7       30.17F
DAYTON         MOSUNNY   58  39  49 VRB7      30.18F
WILMINGTON     PTSUNNY   51  43  74 VRB6      30.18F
HUNTINGTON     CLOUDY    55  45  68 NE7       30.15S
CHARLESTON     CLOUDY    57  45  64 N6        30.14S
PINEVILLE*     SUNNY     69  42  37 MISG      30.12F
BECKLEY        SUNNY     62  46  55 N7        30.10F
BLUEFIELD      MOSUNNY   64  43  46 NE3       30.08F
LOGAN CO APT*    N/A     63  48  59 VRB7      30.10F
$$

VAZ002-007-008-TNZ017-027-036-066-071-292000
...SOUTHWEST VIRGINIA/EAST TENNESSEE...

CITY           SKY/WX    TMP DP  RH WIND       PRES   REMARKS
WISE*          MOSUNNY   64  46  52 NE5       30.10F
JONESVILLE*      N/A     73  48  40 CALM      30.07F
ABINGDON*      SUNNY     71  48  43 N7        30.06F
BRISTOL        MOSUNNY   74  49  41 VRB5      30.04F
MORRISTOWN*    CLEAR     72  52  49 W8        30.05R
SEVIERVILLE*   CLEAR     73  52  46 NW5       30.04R
KNOXVILLE      MOSUNNY   74  50  42 CALM      30.04S
LAFOLLETTE*    CLEAR     75  52  43 VRB5      30.07F
OAK RIDGE      SUNNY     78  49  35 VRB3      30.05F
CROSSVILLE     SUNNY     75  50  41 W10G20    30.07F
NASHVILLE      MOSUNNY   78  53  41 VRB7      30.02F
$$

...KEY TO REMARKS...
VSB - VISIBILITY IN MILES
WCI - WIND CHILL INDEX
HX  - HEAT INDEX

$$



USA.gov is the U.S. government's official web portal to all federal, state and local government web resources and services.